COSMOS 2425 (716) (29670 NORAD) Tracking and Keplerian Element Data

This shows tracking and keplerian element data for the satellite.

Feedback or suggestion? Click here.




ElementValue
Catalog29670
NameCOSMOS 2425 (716)
Epoch Orbit11662
Epoch Day353.93984181
Epoch Year2021
RAAN249.1868
Inclination64.7981
Eccentricity0.0024543
Argument of Perigee346.4105
Mean Anonmoly271.8937
Mean Motion2.13111104
Decay Rate4.3E-07
L11 29670U 06062A 21353.93984181 .00000043 00000+0 00000+0 0 9990
L22 29670 64.7981 249.1868 0024543 346.4105 271.8937 2.13111104116627



Live tracking and technical data element details for COSMOS 2425 (716) (NORAD 29670). COSMOS 2425 (716) can be tracked NOW for your location showing map with azimuth and elevation plus other details from your city location.







IsCatalogInMostPopularTable: catalog: 29670, numindb: 328
Update: records affected: 1



GetName: 29670 COSMOS 2425 (716)

Hit Count: updated at: Thu, 22 May 2025 03:31:48 GMT